This is the latest recevied weather packets stored in our database for station/object KC3JUG-13. If no packets are shown the sender has not sent any weather packets the latest 1 day(s).
| Time | Temp. | Humidity | Pressure | Rain* | Wind** | Luminosity | Snow |
|---|---|---|---|---|---|---|---|
| 1778032957 | 20° C | 61% | 1011.7 hPa | 0 mm | 0.89 m/s, 216° | - | - |
| 1778032177 | 20.56° C | 60% | 1011.6 hPa | 0 mm | 0.89 m/s, 216° | - | - |
| 1778031397 | 20.56° C | 59% | 1011.2 hPa | 0 mm | 0.89 m/s, 216° | - | - |
| 1778030649 | 20.56° C | 58% | 1011.4 hPa | 0 mm | 0.89 m/s, 216° | - | - |
| 1778030617 | 20.56° C | 58% | 1011.4 hPa | 0 mm | 0.89 m/s, 216° | - | - |
| 1778029837 | 21.11° C | 57% | 1011.1 hPa | 0 mm | 0.89 m/s, 215° | - | - |
| 1778029057 | 21.11° C | 56% | 1011 hPa | 0 mm | 0.89 m/s, 244° | - | - |
| 1778028277 | 21.11° C | 55% | 1010.9 hPa | 0 mm | 0.45 m/s, 218° | - | - |
| 1778027497 | 21.67° C | 54% | 1010.8 hPa | 0 mm | 0.45 m/s, 230° | - | - |
| 1778026717 | 21.67° C | 53% | 1010.8 hPa | 0 mm | 0.45 m/s, 230° | - | - |
| 1778025937 | 22.22° C | 52% | 1010.6 hPa | 0 mm | 0.89 m/s, 230° | - | - |
| 1778025157 | 22.78° C | 52% | 1010.4 hPa | 0 mm | 0.89 m/s, 264° | - | - |
| 1778024378 | 22.78° C | 51% | 1010.4 hPa | 0 mm | 1.34 m/s, 264° | - | - |
| 1778023598 | 23.33° C | 51% | 1010.1 hPa | 0 mm | 0.89 m/s, 269° | - | - |
| 1778022817 | 23.33° C | 49% | 1010.1 hPa | 0 mm | 0.89 m/s, 211° | - | - |
| 1778022038 | 23.89° C | 47% | 1010 hPa | 0 mm | 0.89 m/s, 209° | - | - |
| 1778021258 | 24.44° C | 45% | 1010.1 hPa | 0 mm | 1.34 m/s, 188° | - | - |
| 1778020478 | 24.44° C | 46% | 1010 hPa | 0 mm | 1.34 m/s, 178° | - | - |
| 1778019698 | 24.44° C | 45% | 1010.1 hPa | 0 mm | 1.34 m/s, 208° | - | - |
| 1778018918 | 25° C | 46% | 1010.2 hPa | 0 mm | 1.79 m/s, 272° | - | - |
| 1778018138 | 25° C | 44% | 1010.1 hPa | 0 mm | 0.45 m/s, 248° | - | - |
| 1778017358 | 25.56° C | 42% | 1009.9 hPa | 0 mm | 1.79 m/s, 194° | - | - |
| 1778016578 | 25.56° C | 43% | 1009.9 hPa | 0 mm | 2.24 m/s, 232° | - | - |
| 1778015798 | 25.56° C | 42% | 1009.9 hPa | 0 mm | 1.79 m/s, 255° | - | - |
| 1778015018 | 25.56° C | 42% | 1009.8 hPa | 0 mm | 2.24 m/s, 190° | - | - |
* Rain latest hour (hover to see other rain measurements)
** Current wind speed in m/s (hover to see current wind gust speed)